Location: Nashville
(36.1660°N, 86.7840°W)
Time: 19:46:19
(UTC-06:00)

Tiangong - Visible Passes

Search period start: 26 November 2022 00:00
Search period end: 06 December 2022 00:00
Orbit: 387 x 394 km, 41.5° (Epoch: 26 November)

Date Brightness Start Highest point End Pass type
(mag) Time Alt. Az. Time Alt. Az. Time Alt. Az.
26 Nov 0.1 17:51:10 10° S 17:52:54 14° SE 17:52:54 14° SE visible
27 Nov -0.3 18:28:41 10° SW 18:30:29 28° SSW 18:30:29 28° SSW visible
28 Nov -0.8 17:31:19 10° SSW 17:34:06 27° SSE 17:35:37 19° ESE visible
28 Nov 1.5 19:07:48 10° W 19:07:57 11° W 19:07:57 11° W visible
29 Nov -2.2 18:09:53 10° WSW 18:13:00 82° WNW 18:13:00 82° WNW visible
30 Nov -1.8 17:12:08 10° SW 17:15:15 56° SSE 17:17:57 13° ENE visible
30 Nov 0.7 18:49:18 10° W 18:50:17 17° WNW 18:50:17 17° WNW visible
01 Dec -1.6 17:51:12 10° W 17:54:20 50° NNW 17:55:10 37° NNE visible
02 Dec 0.0 18:30:42 10° WNW 18:32:19 23° NW 18:32:19 23° NW visible
03 Dec -1.1 17:32:30 10° W 17:35:30 36° N 17:37:07 21° NE visible
04 Dec -0.6 18:11:52 10° WNW 18:14:12 28° NNW 18:14:12 28° NNW visible
05 Dec -0.9 17:13:41 10° WNW 17:16:34 30° N 17:18:57 13° NE visible
05 Dec 1.0 18:50:53 10° WNW 18:51:16 13° WNW 18:51:16 13° WNW visible
